#datetime,building,power
2023-02-05T00:00:00,mfh,52.88
2023-02-05T00:01:00,mfh,52.56
2023-02-05T00:02:00,mfh,52.53
2023-02-05T00:03:00,mfh,52.67
2023-02-05T00:04:00,mfh,52.58
2023-02-05T00:05:00,mfh,52.66
2023-02-05T00:06:00,mfh,52.84
2023-02-05T00:07:00,mfh,51.94
2023-02-05T00:08:00,mfh,51.86
2023-02-05T00:09:00,mfh,52.15
2023-02-05T00:10:00,mfh,52.84
2023-02-05T00:11:00,mfh,52.24
2023-02-05T00:12:00,mfh,52.17
2023-02-05T00:13:00,mfh,52.46
2023-02-05T00:14:00,mfh,52.10
2023-02-05T00:15:00,mfh,52.20
2023-02-05T00:16:00,mfh,51.59
2023-02-05T00:17:00,mfh,51.60
2023-02-05T00:18:00,mfh,51.59
2023-02-05T00:19:00,mfh,52.08
2023-02-05T00:20:00,mfh,52.33
2023-02-05T00:21:00,mfh,52.29
2023-02-05T00:22:00,mfh,52.43
2023-02-05T00:23:00,mfh,52.40
2023-02-05T00:24:00,mfh,52.34
2023-02-05T00:25:00,mfh,51.66
2023-02-05T00:26:00,mfh,52.06
2023-02-05T00:27:00,mfh,52.02
2023-02-05T00:28:00,mfh,52.43
2023-02-05T00:29:00,mfh,53.25
2023-02-05T00:30:00,mfh,53.15
2023-02-05T00:31:00,mfh,53.09
2023-02-05T00:32:00,mfh,52.77
2023-02-05T00:33:00,mfh,52.83
2023-02-05T00:34:00,mfh,52.81
2023-02-05T00:35:00,mfh,51.25
2023-02-05T00:36:00,mfh,51.66
2023-02-05T00:37:00,mfh,51.79
2023-02-05T00:38:00,mfh,45.88
2023-02-05T00:39:00,mfh,43.80
2023-02-05T00:40:00,mfh,43.87
2023-02-05T00:41:00,mfh,44.39
2023-02-05T00:42:00,mfh,50.51
2023-02-05T00:43:00,mfh,57.02
2023-02-05T00:44:00,mfh,70.03
2023-02-05T00:45:00,mfh,72.07
2023-02-05T00:46:00,mfh,70.80
2023-02-05T00:47:00,mfh,70.66
2023-02-05T00:48:00,mfh,70.33
2023-02-05T00:49:00,mfh,69.82
2023-02-05T00:50:00,mfh,69.52
2023-02-05T00:51:00,mfh,63.59
2023-02-05T00:52:00,mfh,63.42
2023-02-05T00:53:00,mfh,63.14
2023-02-05T00:54:00,mfh,62.32
2023-02-05T00:55:00,mfh,62.20
2023-02-05T00:56:00,mfh,62.10
2023-02-05T00:57:00,mfh,62.67
2023-02-05T00:58:00,mfh,65.09
2023-02-05T00:59:00,mfh,59.25
2023-02-05T01:00:00,mfh,52.15
2023-02-05T01:01:00,mfh,46.04
2023-02-05T01:02:00,mfh,45.55
2023-02-05T01:03:00,mfh,45.55
2023-02-05T01:04:00,mfh,45.10
2023-02-05T01:05:00,mfh,44.86
2023-02-05T01:06:00,mfh,45.67
2023-02-05T01:07:00,mfh,45.53
2023-02-05T01:08:00,mfh,45.33
2023-02-05T01:09:00,mfh,45.37
2023-02-05T01:10:00,mfh,45.42
2023-02-05T01:11:00,mfh,45.50
2023-02-05T01:12:00,mfh,44.76
2023-02-05T01:13:00,mfh,44.72
2023-02-05T01:14:00,mfh,44.74
2023-02-05T01:15:00,mfh,45.40
2023-02-05T01:16:00,mfh,45.69
2023-02-05T01:17:00,mfh,45.82
2023-02-05T01:18:00,mfh,45.80
2023-02-05T01:19:00,mfh,45.82
2023-02-05T01:20:00,mfh,45.83
2023-02-05T01:21:00,mfh,45.59
2023-02-05T01:22:00,mfh,45.18
2023-02-05T01:23:00,mfh,45.83
2023-02-05T01:24:00,mfh,45.54
2023-02-05T01:25:00,mfh,46.43
2023-02-05T01:26:00,mfh,46.31
2023-02-05T01:27:00,mfh,46.39
2023-02-05T01:28:00,mfh,46.49
2023-02-05T01:29:00,mfh,46.49
2023-02-05T01:30:00,mfh,45.68
2023-02-05T01:31:00,mfh,45.11
2023-02-05T01:32:00,mfh,45.38
2023-02-05T01:33:00,mfh,45.46
2023-02-05T01:34:00,mfh,45.99
2023-02-05T01:35:00,mfh,46.35
2023-02-05T01:36:00,mfh,44.91
2023-02-05T01:37:00,mfh,44.30
2023-02-05T01:38:00,mfh,44.27
2023-02-05T01:39:00,mfh,44.32
2023-02-05T01:40:00,mfh,43.48
2023-02-05T01:41:00,mfh,43.55
2023-02-05T01:42:00,mfh,43.47
2023-02-05T01:43:00,mfh,44.05
2023-02-05T01:44:00,mfh,44.09
2023-02-05T01:45:00,mfh,44.22
2023-02-05T01:46:00,mfh,44.07
2023-02-05T01:47:00,mfh,44.10
2023-02-05T01:48:00,mfh,44.12
2023-02-05T01:49:00,mfh,44.10
2023-02-05T01:50:00,mfh,43.44
2023-02-05T01:51:00,mfh,43.41
2023-02-05T01:52:00,mfh,43.41
2023-02-05T01:53:00,mfh,44.28
2023-02-05T01:54:00,mfh,44.28
2023-02-05T01:55:00,mfh,44.39
2023-02-05T01:56:00,mfh,46.43
2023-02-05T01:57:00,mfh,46.68
2023-02-05T01:58:00,mfh,46.46
2023-02-05T01:59:00,mfh,45.71
2023-02-05T02:00:00,mfh,45.69
2023-02-05T02:01:00,mfh,46.45
2023-02-05T02:02:00,mfh,46.51
2023-02-05T02:03:00,mfh,46.55
2023-02-05T02:04:00,mfh,46.44
2023-02-05T02:05:00,mfh,46.33
2023-02-05T02:06:00,mfh,46.24
2023-02-05T02:07:00,mfh,46.26
2023-02-05T02:08:00,mfh,47.16
2023-02-05T02:09:00,mfh,45.69
2023-02-05T02:10:00,mfh,45.76
2023-02-05T02:11:00,mfh,45.98
2023-02-05T02:12:00,mfh,46.48
2023-02-05T02:13:00,mfh,46.50
2023-02-05T02:14:00,mfh,46.60
2023-02-05T02:15:00,mfh,46.82
2023-02-05T02:16:00,mfh,46.34
2023-02-05T02:17:00,mfh,46.41
2023-02-05T02:18:00,mfh,45.81
2023-02-05T02:19:00,mfh,45.79
2023-02-05T02:20:00,mfh,45.65
2023-02-05T02:21:00,mfh,46.26
2023-02-05T02:22:00,mfh,47.22
2023-02-05T02:23:00,mfh,47.18
2023-02-05T02:24:00,mfh,47.26
2023-02-05T02:25:00,mfh,47.18
2023-02-05T02:26:00,mfh,48.67
2023-02-05T02:27:00,mfh,47.96
2023-02-05T02:28:00,mfh,47.39
2023-02-05T02:29:00,mfh,47.87
2023-02-05T02:30:00,mfh,47.37
2023-02-05T02:31:00,mfh,47.89
2023-02-05T02:32:00,mfh,47.77
2023-02-05T02:33:00,mfh,46.30
2023-02-05T02:34:00,mfh,46.12
2023-02-05T02:35:00,mfh,44.13
2023-02-05T02:36:00,mfh,44.20
2023-02-05T02:37:00,mfh,43.50
2023-02-05T02:38:00,mfh,43.38
2023-02-05T02:39:00,mfh,43.40
2023-02-05T02:40:00,mfh,43.93
2023-02-05T02:41:00,mfh,43.82
2023-02-05T02:42:00,mfh,44.37
2023-02-05T02:43:00,mfh,43.85
2023-02-05T02:44:00,mfh,43.87
2023-02-05T02:45:00,mfh,43.90
2023-02-05T02:46:00,mfh,44.37
2023-02-05T02:47:00,mfh,43.29
2023-02-05T02:48:00,mfh,43.46
2023-02-05T02:49:00,mfh,43.47
2023-02-05T02:50:00,mfh,44.58
2023-02-05T02:51:00,mfh,44.42
2023-02-05T02:52:00,mfh,44.45
2023-02-05T02:53:00,mfh,44.33
2023-02-05T02:54:00,mfh,44.36
2023-02-05T02:55:00,mfh,46.47
2023-02-05T02:56:00,mfh,45.65
2023-02-05T02:57:00,mfh,45.63
2023-02-05T02:58:00,mfh,45.61
2023-02-05T02:59:00,mfh,46.14
2023-02-05T03:00:00,mfh,46.05
2023-02-05T03:01:00,mfh,46.07
2023-02-05T03:02:00,mfh,46.10
2023-02-05T03:03:00,mfh,46.07
2023-02-05T03:04:00,mfh,46.08
2023-02-05T03:05:00,mfh,46.17
2023-02-05T03:06:00,mfh,45.61
2023-02-05T03:07:00,mfh,45.30
2023-02-05T03:08:00,mfh,45.30
2023-02-05T03:09:00,mfh,46.28
2023-02-05T03:10:00,mfh,45.94
2023-02-05T03:11:00,mfh,46.16
2023-02-05T03:12:00,mfh,46.36
2023-02-05T03:13:00,mfh,46.09
2023-02-05T03:14:00,mfh,46.06
2023-02-05T03:15:00,mfh,45.32
2023-02-05T03:16:00,mfh,45.21
2023-02-05T03:17:00,mfh,45.58
2023-02-05T03:18:00,mfh,46.95
2023-02-05T03:19:00,mfh,46.13
2023-02-05T03:20:00,mfh,46.15
2023-02-05T03:21:00,mfh,46.12
2023-02-05T03:22:00,mfh,46.05
2023-02-05T03:23:00,mfh,46.07
2023-02-05T03:24:00,mfh,46.75
2023-02-05T03:25:00,mfh,46.01
2023-02-05T03:26:00,mfh,46.04
2023-02-05T03:27:00,mfh,46.02
2023-02-05T03:28:00,mfh,46.65
2023-02-05T03:29:00,mfh,46.13
2023-02-05T03:30:00,mfh,46.62
2023-02-05T03:31:00,mfh,47.16
2023-02-05T03:32:00,mfh,46.12
2023-02-05T03:33:00,mfh,46.30
2023-02-05T03:34:00,mfh,44.33
2023-02-05T03:35:00,mfh,43.61
2023-02-05T03:36:00,mfh,43.62
2023-02-05T03:37:00,mfh,43.70
2023-02-05T03:38:00,mfh,44.36
2023-02-05T03:39:00,mfh,44.44
2023-02-05T03:40:00,mfh,44.43
2023-02-05T03:41:00,mfh,44.62
2023-02-05T03:42:00,mfh,44.58
2023-02-05T03:43:00,mfh,44.36
2023-02-05T03:44:00,mfh,44.73
2023-02-05T03:45:00,mfh,43.72
2023-02-05T03:46:00,mfh,43.72
2023-02-05T03:47:00,mfh,43.74
2023-02-05T03:48:00,mfh,44.35
2023-02-05T03:49:00,mfh,44.38
2023-02-05T03:50:00,mfh,44.49
2023-02-05T03:51:00,mfh,44.58
2023-02-05T03:52:00,mfh,44.39
2023-02-05T03:53:00,mfh,43.73
2023-02-05T03:54:00,mfh,45.63
2023-02-05T03:55:00,mfh,45.61
2023-02-05T03:56:00,mfh,46.54
2023-02-05T03:57:00,mfh,46.53
2023-02-05T03:58:00,mfh,46.42
2023-02-05T03:59:00,mfh,46.31
2023-02-05T04:00:00,mfh,46.33
2023-02-05T04:01:00,mfh,46.27
2023-02-05T04:02:00,mfh,46.05
2023-02-05T04:03:00,mfh,45.96
2023-02-05T04:04:00,mfh,45.38
2023-02-05T04:05:00,mfh,46.48
2023-02-05T04:06:00,mfh,45.40
2023-02-05T04:07:00,mfh,46.18
2023-02-05T04:08:00,mfh,46.26
2023-02-05T04:09:00,mfh,46.16
2023-02-05T04:10:00,mfh,46.31
2023-02-05T04:11:00,mfh,46.41
2023-02-05T04:12:00,mfh,46.31
2023-02-05T04:13:00,mfh,45.59
2023-02-05T04:14:00,mfh,45.90
2023-02-05T04:15:00,mfh,45.81
2023-02-05T04:16:00,mfh,46.38
2023-02-05T04:17:00,mfh,46.38
2023-02-05T04:18:00,mfh,46.39
2023-02-05T04:19:00,mfh,46.21
2023-02-05T04:20:00,mfh,45.96
2023-02-05T04:21:00,mfh,45.91
2023-02-05T04:22:00,mfh,45.24
2023-02-05T04:23:00,mfh,45.29
2023-02-05T04:24:00,mfh,45.20
2023-02-05T04:25:00,mfh,46.05
2023-02-05T04:26:00,mfh,45.70
2023-02-05T04:27:00,mfh,45.91
2023-02-05T04:28:00,mfh,45.89
2023-02-05T04:29:00,mfh,45.93
2023-02-05T04:30:00,mfh,46.52
2023-02-05T04:31:00,mfh,45.90
2023-02-05T04:32:00,mfh,44.48
2023-02-05T04:33:00,mfh,44.28
2023-02-05T04:34:00,mfh,44.72
2023-02-05T04:35:00,mfh,44.72
2023-02-05T04:36:00,mfh,43.89
2023-02-05T04:37:00,mfh,43.82
2023-02-05T04:38:00,mfh,43.64
2023-02-05T04:39:00,mfh,43.74
2023-02-05T04:40:00,mfh,43.72
2023-02-05T04:41:00,mfh,43.08
2023-02-05T04:42:00,mfh,43.01
2023-02-05T04:43:00,mfh,42.96
2023-02-05T04:44:00,mfh,43.62
2023-02-05T04:45:00,mfh,44.25
2023-02-05T04:46:00,mfh,43.61
2023-02-05T04:47:00,mfh,43.74
2023-02-05T04:48:00,mfh,43.98
2023-02-05T04:49:00,mfh,43.73
2023-02-05T04:50:00,mfh,43.21
2023-02-05T04:51:00,mfh,43.21
2023-02-05T04:52:00,mfh,43.36
2023-02-05T04:53:00,mfh,45.97
2023-02-05T04:54:00,mfh,46.10
2023-02-05T04:55:00,mfh,46.11
2023-02-05T04:56:00,mfh,46.12
2023-02-05T04:57:00,mfh,45.86
2023-02-05T04:58:00,mfh,46.12
2023-02-05T04:59:00,mfh,45.93
2023-02-05T05:00:00,mfh,45.17
2023-02-05T05:01:00,mfh,57.11
2023-02-05T05:02:00,mfh,61.73
2023-02-05T05:03:00,mfh,62.48
2023-02-05T05:04:00,mfh,63.05
2023-02-05T05:05:00,mfh,64.23
2023-02-05T05:06:00,mfh,62.88
2023-02-05T05:07:00,mfh,62.21
2023-02-05T05:08:00,mfh,61.37
2023-02-05T05:09:00,mfh,62.33
2023-02-05T05:10:00,mfh,62.28
2023-02-05T05:11:00,mfh,62.80
2023-02-05T05:12:00,mfh,63.30
2023-02-05T05:13:00,mfh,63.03
2023-02-05T05:14:00,mfh,63.16
2023-02-05T05:15:00,mfh,63.23
2023-02-05T05:16:00,mfh,63.06
2023-02-05T05:17:00,mfh,62.89
2023-02-05T05:18:00,mfh,62.18
2023-02-05T05:19:00,mfh,62.29
2023-02-05T05:20:00,mfh,62.22
2023-02-05T05:21:00,mfh,62.97
2023-02-05T05:22:00,mfh,62.77
2023-02-05T05:23:00,mfh,62.84
2023-02-05T05:24:00,mfh,63.60
2023-02-05T05:25:00,mfh,62.84
2023-02-05T05:26:00,mfh,62.27
2023-02-05T05:27:00,mfh,61.82
2023-02-05T05:28:00,mfh,62.18
2023-02-05T05:29:00,mfh,59.99
2023-02-05T05:30:00,mfh,60.58
2023-02-05T05:31:00,mfh,60.63
2023-02-05T05:32:00,mfh,60.66
2023-02-05T05:33:00,mfh,60.65
2023-02-05T05:34:00,mfh,60.81
2023-02-05T05:35:00,mfh,60.85
2023-02-05T05:36:00,mfh,60.11
2023-02-05T05:37:00,mfh,60.80
2023-02-05T05:38:00,mfh,60.85
2023-02-05T05:39:00,mfh,61.40
2023-02-05T05:40:00,mfh,61.37
2023-02-05T05:41:00,mfh,61.47
2023-02-05T05:42:00,mfh,60.64
2023-02-05T05:43:00,mfh,60.81
2023-02-05T05:44:00,mfh,60.91
2023-02-05T05:45:00,mfh,60.07
2023-02-05T05:46:00,mfh,60.84
2023-02-05T05:47:00,mfh,59.91
2023-02-05T05:48:00,mfh,60.40
2023-02-05T05:49:00,mfh,60.40
2023-02-05T05:50:00,mfh,60.54
2023-02-05T05:51:00,mfh,60.33
2023-02-05T05:52:00,mfh,60.31
2023-02-05T05:53:00,mfh,63.49
2023-02-05T05:54:00,mfh,61.55
2023-02-05T05:55:00,mfh,61.55
2023-02-05T05:56:00,mfh,61.58
2023-02-05T05:57:00,mfh,62.46
2023-02-05T05:58:00,mfh,62.49
2023-02-05T05:59:00,mfh,62.39
2023-02-05T06:00:00,mfh,62.36
2023-02-05T06:01:00,mfh,62.30
2023-02-05T06:02:00,mfh,62.41
2023-02-05T06:03:00,mfh,61.80
2023-02-05T06:04:00,mfh,61.67
2023-02-05T06:05:00,mfh,61.98
2023-02-05T06:06:00,mfh,62.44
2023-02-05T06:07:00,mfh,62.37
2023-02-05T06:08:00,mfh,62.26
2023-02-05T06:09:00,mfh,62.07
2023-02-05T06:10:00,mfh,62.07
2023-02-05T06:11:00,mfh,62.20
2023-02-05T06:12:00,mfh,61.39
2023-02-05T06:13:00,mfh,61.46
2023-02-05T06:14:00,mfh,62.34
2023-02-05T06:15:00,mfh,62.32
2023-02-05T06:16:00,mfh,62.90
2023-02-05T06:17:00,mfh,62.54
2023-02-05T06:18:00,mfh,62.07
2023-02-05T06:19:00,mfh,62.15
2023-02-05T06:20:00,mfh,62.46
2023-02-05T06:21:00,mfh,61.44
2023-02-05T06:22:00,mfh,61.33
2023-02-05T06:23:00,mfh,61.42
2023-02-05T06:24:00,mfh,62.21
2023-02-05T06:25:00,mfh,62.01
2023-02-05T06:26:00,mfh,61.93
2023-02-05T06:27:00,mfh,59.76
2023-02-05T06:28:00,mfh,60.40
2023-02-05T06:29:00,mfh,60.54
2023-02-05T06:30:00,mfh,59.96
2023-02-05T06:31:00,mfh,59.68
2023-02-05T06:32:00,mfh,59.68
2023-02-05T06:33:00,mfh,59.60
2023-02-05T06:34:00,mfh,60.53
2023-02-05T06:35:00,mfh,60.36
2023-02-05T06:36:00,mfh,60.60
2023-02-05T06:37:00,mfh,60.66
2023-02-05T06:38:00,mfh,60.68
2023-02-05T06:39:00,mfh,60.03
2023-02-05T06:40:00,mfh,59.93
2023-02-05T06:41:00,mfh,59.96
2023-02-05T06:42:00,mfh,60.48
2023-02-05T06:43:00,mfh,60.37
2023-02-05T06:44:00,mfh,60.50
2023-02-05T06:45:00,mfh,60.66
2023-02-05T06:46:00,mfh,60.79
2023-02-05T06:47:00,mfh,60.79
2023-02-05T06:48:00,mfh,60.48
2023-02-05T06:49:00,mfh,59.74
2023-02-05T06:50:00,mfh,59.81
2023-02-05T06:51:00,mfh,60.42
2023-02-05T06:52:00,mfh,63.42
2023-02-05T06:53:00,mfh,63.24
2023-02-05T06:54:00,mfh,63.17
2023-02-05T06:55:00,mfh,63.37
2023-02-05T06:56:00,mfh,63.47
2023-02-05T06:57:00,mfh,62.56
2023-02-05T06:58:00,mfh,61.13
2023-02-05T06:59:00,mfh,60.87
2023-02-05T07:00:00,mfh,61.95
2023-02-05T07:01:00,mfh,61.95
2023-02-05T07:02:00,mfh,62.67
2023-02-05T07:03:00,mfh,61.39
2023-02-05T07:04:00,mfh,61.42
2023-02-05T07:05:00,mfh,61.43
2023-02-05T07:06:00,mfh,60.68
2023-02-05T07:07:00,mfh,60.76
2023-02-05T07:08:00,mfh,60.87
2023-02-05T07:09:00,mfh,61.14
2023-02-05T07:10:00,mfh,61.40
2023-02-05T07:11:00,mfh,61.47
2023-02-05T07:12:00,mfh,61.24
2023-02-05T07:13:00,mfh,61.38
2023-02-05T07:14:00,mfh,61.36
2023-02-05T07:15:00,mfh,60.92
2023-02-05T07:16:00,mfh,61.01
2023-02-05T07:17:00,mfh,60.49
2023-02-05T07:18:00,mfh,61.77
2023-02-05T07:19:00,mfh,61.12
2023-02-05T07:20:00,mfh,61.21
2023-02-05T07:21:00,mfh,62.23
2023-02-05T07:22:00,mfh,62.75
2023-02-05T07:23:00,mfh,62.04
2023-02-05T07:24:00,mfh,60.11
2023-02-05T07:25:00,mfh,59.98
2023-02-05T07:26:00,mfh,59.72
2023-02-05T07:27:00,mfh,60.57
2023-02-05T07:28:00,mfh,60.69
2023-02-05T07:29:00,mfh,58.99
2023-02-05T07:30:00,mfh,58.94
2023-02-05T07:31:00,mfh,58.89
2023-02-05T07:32:00,mfh,58.85
2023-02-05T07:33:00,mfh,58.33
2023-02-05T07:34:00,mfh,58.36
2023-02-05T07:35:00,mfh,58.91
2023-02-05T07:36:00,mfh,59.77
2023-02-05T07:37:00,mfh,59.96
2023-02-05T07:38:00,mfh,59.63
2023-02-05T07:39:00,mfh,59.83
2023-02-05T07:40:00,mfh,59.75
2023-02-05T07:41:00,mfh,60.08
2023-02-05T07:42:00,mfh,59.25
2023-02-05T07:43:00,mfh,59.20
2023-02-05T07:44:00,mfh,59.18
2023-02-05T07:45:00,mfh,59.06
2023-02-05T07:46:00,mfh,58.81
2023-02-05T07:47:00,mfh,58.73
2023-02-05T07:48:00,mfh,58.79
2023-02-05T07:49:00,mfh,58.89
2023-02-05T07:50:00,mfh,60.87
2023-02-05T07:51:00,mfh,60.10
2023-02-05T07:52:00,mfh,60.01
2023-02-05T07:53:00,mfh,60.28
2023-02-05T07:54:00,mfh,60.82
2023-02-05T07:55:00,mfh,60.76
2023-02-05T07:56:00,mfh,60.80
2023-02-05T07:57:00,mfh,61.15
2023-02-05T07:58:00,mfh,60.89
2023-02-05T07:59:00,mfh,61.00
2023-02-05T08:00:00,mfh,60.22
2023-02-05T08:01:00,mfh,59.91
2023-02-05T08:02:00,mfh,60.08
2023-02-05T08:03:00,mfh,60.15
2023-02-05T08:04:00,mfh,60.32
2023-02-05T08:05:00,mfh,60.48
2023-02-05T08:06:00,mfh,60.16
2023-02-05T08:07:00,mfh,60.07
2023-02-05T08:08:00,mfh,59.94
2023-02-05T08:09:00,mfh,59.48
2023-02-05T08:10:00,mfh,59.51
2023-02-05T08:11:00,mfh,59.72
2023-02-05T08:12:00,mfh,60.18
2023-02-05T08:13:00,mfh,60.79
2023-02-05T08:14:00,mfh,60.93
2023-02-05T08:15:00,mfh,61.17
2023-02-05T08:16:00,mfh,61.13
2023-02-05T08:17:00,mfh,60.90
2023-02-05T08:18:00,mfh,59.83
2023-02-05T08:19:00,mfh,59.49
2023-02-05T08:20:00,mfh,59.52
2023-02-05T08:21:00,mfh,59.67
2023-02-05T08:22:00,mfh,58.44
2023-02-05T08:23:00,mfh,58.51
2023-02-05T08:24:00,mfh,58.66
2023-02-05T08:25:00,mfh,58.81
2023-02-05T08:26:00,mfh,58.79
2023-02-05T08:27:00,mfh,58.77
2023-02-05T08:28:00,mfh,58.25
2023-02-05T08:29:00,mfh,58.44
2023-02-05T08:30:00,mfh,58.41
2023-02-05T08:31:00,mfh,64.84
2023-02-05T08:32:00,mfh,65.09
2023-02-05T08:33:00,mfh,65.00
2023-02-05T08:34:00,mfh,65.01
2023-02-05T08:35:00,mfh,65.00
2023-02-05T08:36:00,mfh,64.74
2023-02-05T08:37:00,mfh,64.67
2023-02-05T08:38:00,mfh,64.91
2023-02-05T08:39:00,mfh,64.57
2023-02-05T08:40:00,mfh,64.69
2023-02-05T08:41:00,mfh,64.47
2023-02-05T08:42:00,mfh,64.74
2023-02-05T08:43:00,mfh,63.84
2023-02-05T08:44:00,mfh,63.99
2023-02-05T08:45:00,mfh,63.92
2023-02-05T08:46:00,mfh,69.53
2023-02-05T08:47:00,mfh,72.75
2023-02-05T08:48:00,mfh,82.07
2023-02-05T08:49:00,mfh,83.65
2023-02-05T08:50:00,mfh,83.28
2023-02-05T08:51:00,mfh,83.03
2023-02-05T08:52:00,mfh,82.83
2023-02-05T08:53:00,mfh,82.60
2023-02-05T08:54:00,mfh,82.27
2023-02-05T08:55:00,mfh,81.70
2023-02-05T08:56:00,mfh,81.67
2023-02-05T08:57:00,mfh,81.58
2023-02-05T08:58:00,mfh,81.86
2023-02-05T08:59:00,mfh,81.71
2023-02-05T09:00:00,mfh,81.58
2023-02-05T09:01:00,mfh,81.54
2023-02-05T09:02:00,mfh,81.52
2023-02-05T09:03:00,mfh,72.13
2023-02-05T09:04:00,mfh,72.27
2023-02-05T09:05:00,mfh,72.21
2023-02-05T09:06:00,mfh,65.44
2023-02-05T09:07:00,mfh,73.45
2023-02-05T09:08:00,mfh,82.05
2023-02-05T09:09:00,mfh,82.15
2023-02-05T09:10:00,mfh,81.78
2023-02-05T09:11:00,mfh,81.57
2023-02-05T09:12:00,mfh,81.36
2023-02-05T09:13:00,mfh,81.91
2023-02-05T09:14:00,mfh,81.83
2023-02-05T09:15:00,mfh,81.48
2023-02-05T09:16:00,mfh,81.42
2023-02-05T09:17:00,mfh,80.75
2023-02-05T09:18:00,mfh,80.92
2023-02-05T09:19:00,mfh,80.77
2023-02-05T09:20:00,mfh,80.74
2023-02-05T09:21:00,mfh,80.69
2023-02-05T09:22:00,mfh,80.60
2023-02-05T09:23:00,mfh,75.68
2023-02-05T09:24:00,mfh,75.86
2023-02-05T09:25:00,mfh,76.33
2023-02-05T09:26:00,mfh,70.55
2023-02-05T09:27:00,mfh,71.01
2023-02-05T09:28:00,mfh,71.25
2023-02-05T09:29:00,mfh,71.56
2023-02-05T09:30:00,mfh,71.30
2023-02-05T09:31:00,mfh,71.30
2023-02-05T09:32:00,mfh,64.34
2023-02-05T09:33:00,mfh,64.85
2023-02-05T09:34:00,mfh,64.98
2023-02-05T09:35:00,mfh,64.89
2023-02-05T09:36:00,mfh,65.00
2023-02-05T09:37:00,mfh,64.42
2023-02-05T09:38:00,mfh,64.30
2023-02-05T09:39:00,mfh,64.38
2023-02-05T09:40:00,mfh,65.35
2023-02-05T09:41:00,mfh,64.85
2023-02-05T09:42:00,mfh,64.90
2023-02-05T09:43:00,mfh,70.08
2023-02-05T09:44:00,mfh,71.20
2023-02-05T09:45:00,mfh,71.46
2023-02-05T09:46:00,mfh,71.37
2023-02-05T09:47:00,mfh,72.70
2023-02-05T09:48:00,mfh,72.31
2023-02-05T09:49:00,mfh,72.45
2023-02-05T09:50:00,mfh,71.84
2023-02-05T09:51:00,mfh,72.07
2023-02-05T09:52:00,mfh,73.43
2023-02-05T09:53:00,mfh,73.26
2023-02-05T09:54:00,mfh,73.62
2023-02-05T09:55:00,mfh,73.71
2023-02-05T09:56:00,mfh,87.81
2023-02-05T09:57:00,mfh,88.37
2023-02-05T09:58:00,mfh,88.20
2023-02-05T09:59:00,mfh,88.06
2023-02-05T10:00:00,mfh,87.91
2023-02-05T10:01:00,mfh,87.69
2023-02-05T10:02:00,mfh,87.58
2023-02-05T10:03:00,mfh,87.60
2023-02-05T10:04:00,mfh,87.31
2023-02-05T10:05:00,mfh,87.13
2023-02-05T10:06:00,mfh,87.19
2023-02-05T10:07:00,mfh,87.09
2023-02-05T10:08:00,mfh,87.03
2023-02-05T10:09:00,mfh,87.10
2023-02-05T10:10:00,mfh,87.40
2023-02-05T10:11:00,mfh,86.99
2023-02-05T10:12:00,mfh,86.98
2023-02-05T10:13:00,mfh,84.83
2023-02-05T10:14:00,mfh,80.41
2023-02-05T10:15:00,mfh,80.46
2023-02-05T10:16:00,mfh,79.78
2023-02-05T10:17:00,mfh,79.94
2023-02-05T10:18:00,mfh,80.34
2023-02-05T10:19:00,mfh,80.15
2023-02-05T10:20:00,mfh,80.49
2023-02-05T10:21:00,mfh,80.55
2023-02-05T10:22:00,mfh,81.98
2023-02-05T10:23:00,mfh,83.53
2023-02-05T10:24:00,mfh,78.51
2023-02-05T10:25:00,mfh,78.91
2023-02-05T10:26:00,mfh,78.95
2023-02-05T10:27:00,mfh,77.53
2023-02-05T10:28:00,mfh,77.77
2023-02-05T10:29:00,mfh,77.58
2023-02-05T10:30:00,mfh,71.83
2023-02-05T10:31:00,mfh,79.09
2023-02-05T10:32:00,mfh,78.72
2023-02-05T10:33:00,mfh,79.01
2023-02-05T10:34:00,mfh,79.03
2023-02-05T10:35:00,mfh,78.83
2023-02-05T10:36:00,mfh,78.80
2023-02-05T10:37:00,mfh,81.69
2023-02-05T10:38:00,mfh,81.50
2023-02-05T10:39:00,mfh,81.49
2023-02-05T10:40:00,mfh,81.63
2023-02-05T10:41:00,mfh,76.22
2023-02-05T10:42:00,mfh,75.95
2023-02-05T10:43:00,mfh,75.76
2023-02-05T10:44:00,mfh,75.75
2023-02-05T10:45:00,mfh,78.06
2023-02-05T10:46:00,mfh,76.10
2023-02-05T10:47:00,mfh,75.87
2023-02-05T10:48:00,mfh,76.14
2023-02-05T10:49:00,mfh,76.15
2023-02-05T10:50:00,mfh,75.58
2023-02-05T10:51:00,mfh,75.81
2023-02-05T10:52:00,mfh,76.11
2023-02-05T10:53:00,mfh,76.16
2023-02-05T10:54:00,mfh,72.97
2023-02-05T10:55:00,mfh,72.77
2023-02-05T10:56:00,mfh,73.11
2023-02-05T10:57:00,mfh,72.81
2023-02-05T10:58:00,mfh,72.72
2023-02-05T10:59:00,mfh,73.20
2023-02-05T11:00:00,mfh,73.97
2023-02-05T11:01:00,mfh,73.84
2023-02-05T11:02:00,mfh,85.46
2023-02-05T11:03:00,mfh,86.38
2023-02-05T11:04:00,mfh,86.56
2023-02-05T11:05:00,mfh,86.52
2023-02-05T11:06:00,mfh,86.11
2023-02-05T11:07:00,mfh,85.89
2023-02-05T11:08:00,mfh,85.79
2023-02-05T11:09:00,mfh,85.27
2023-02-05T11:10:00,mfh,84.99
2023-02-05T11:11:00,mfh,84.85
2023-02-05T11:12:00,mfh,85.00
2023-02-05T11:13:00,mfh,84.97
2023-02-05T11:14:00,mfh,84.93
2023-02-05T11:15:00,mfh,84.91
2023-02-05T11:16:00,mfh,84.98
2023-02-05T11:17:00,mfh,84.93
2023-02-05T11:18:00,mfh,84.98
2023-02-05T11:19:00,mfh,84.82
2023-02-05T11:20:00,mfh,84.87
2023-02-05T11:21:00,mfh,84.91
2023-02-05T11:22:00,mfh,84.82
2023-02-05T11:23:00,mfh,84.95
2023-02-05T11:24:00,mfh,84.43
2023-02-05T11:25:00,mfh,84.16
2023-02-05T11:26:00,mfh,83.99
2023-02-05T11:27:00,mfh,84.38
2023-02-05T11:28:00,mfh,84.37
2023-02-05T11:29:00,mfh,84.50
2023-02-05T11:30:00,mfh,84.44
2023-02-05T11:31:00,mfh,84.29
2023-02-05T11:32:00,mfh,84.25
2023-02-05T11:33:00,mfh,84.63
2023-02-05T11:34:00,mfh,84.31
2023-02-05T11:35:00,mfh,84.37
2023-02-05T11:36:00,mfh,84.02
2023-02-05T11:37:00,mfh,84.10
2023-02-05T11:38:00,mfh,84.31
2023-02-05T11:39:00,mfh,84.60
2023-02-05T11:40:00,mfh,84.63
2023-02-05T11:41:00,mfh,84.48
2023-02-05T11:42:00,mfh,84.98
2023-02-05T11:43:00,mfh,85.07
2023-02-05T11:44:00,mfh,85.13
2023-02-05T11:45:00,mfh,85.17
2023-02-05T11:46:00,mfh,84.94
2023-02-05T11:47:00,mfh,88.04
2023-02-05T11:48:00,mfh,87.86
2023-02-05T11:49:00,mfh,87.88
2023-02-05T11:50:00,mfh,87.67
2023-02-05T11:51:00,mfh,87.69
2023-02-05T11:52:00,mfh,87.61
2023-02-05T11:53:00,mfh,87.81
2023-02-05T11:54:00,mfh,87.65
2023-02-05T11:55:00,mfh,87.61
2023-02-05T11:56:00,mfh,87.63
2023-02-05T11:57:00,mfh,87.51
2023-02-05T11:58:00,mfh,87.69
2023-02-05T11:59:00,mfh,87.64
2023-02-05T12:00:00,mfh,87.62
2023-02-05T12:01:00,mfh,87.62
2023-02-05T12:02:00,mfh,87.41
2023-02-05T12:03:00,mfh,87.32
2023-02-05T12:04:00,mfh,87.31
2023-02-05T12:05:00,mfh,87.31
2023-02-05T12:06:00,mfh,87.27
2023-02-05T12:07:00,mfh,87.26
2023-02-05T12:08:00,mfh,87.54
2023-02-05T12:09:00,mfh,87.63
2023-02-05T12:10:00,mfh,87.60
2023-02-05T12:11:00,mfh,87.51
2023-02-05T12:12:00,mfh,87.56
2023-02-05T12:13:00,mfh,87.59
2023-02-05T12:14:00,mfh,87.54
2023-02-05T12:15:00,mfh,87.59
2023-02-05T12:16:00,mfh,87.41
2023-02-05T12:17:00,mfh,87.44
2023-02-05T12:18:00,mfh,87.36
2023-02-05T12:19:00,mfh,87.56
2023-02-05T12:20:00,mfh,87.57
2023-02-05T12:21:00,mfh,87.52
2023-02-05T12:22:00,mfh,87.53
2023-02-05T12:23:00,mfh,87.56
2023-02-05T12:24:00,mfh,87.99
2023-02-05T12:25:00,mfh,88.14
2023-02-05T12:26:00,mfh,88.14
2023-02-05T12:27:00,mfh,87.97
2023-02-05T12:28:00,mfh,87.98
2023-02-05T12:29:00,mfh,87.91
2023-02-05T12:30:00,mfh,88.00
2023-02-05T12:31:00,mfh,87.76
2023-02-05T12:32:00,mfh,87.82
2023-02-05T12:33:00,mfh,87.66
2023-02-05T12:34:00,mfh,85.38
2023-02-05T12:35:00,mfh,85.48
2023-02-05T12:36:00,mfh,85.47
2023-02-05T12:37:00,mfh,85.64
2023-02-05T12:38:00,mfh,85.59
2023-02-05T12:39:00,mfh,85.31
2023-02-05T12:40:00,mfh,85.48
2023-02-05T12:41:00,mfh,85.60
2023-02-05T12:42:00,mfh,85.25
2023-02-05T12:43:00,mfh,85.22
2023-02-05T12:44:00,mfh,85.26
2023-02-05T12:45:00,mfh,85.03
2023-02-05T12:46:00,mfh,85.47
2023-02-05T12:47:00,mfh,85.71
2023-02-05T12:48:00,mfh,85.84
2023-02-05T12:49:00,mfh,85.88
2023-02-05T12:50:00,mfh,85.88
2023-02-05T12:51:00,mfh,85.89
2023-02-05T12:52:00,mfh,85.88
2023-02-05T12:53:00,mfh,85.90
2023-02-05T12:54:00,mfh,85.88
2023-02-05T12:55:00,mfh,85.78
2023-02-05T12:56:00,mfh,86.04
2023-02-05T12:57:00,mfh,85.82
2023-02-05T12:58:00,mfh,85.81
2023-02-05T12:59:00,mfh,85.57
2023-02-05T13:00:00,mfh,86.13
2023-02-05T13:01:00,mfh,85.58
2023-02-05T13:02:00,mfh,85.81
2023-02-05T13:03:00,mfh,85.75
2023-02-05T13:04:00,mfh,85.79
2023-02-05T13:05:00,mfh,85.51
2023-02-05T13:06:00,mfh,85.62
2023-02-05T13:07:00,mfh,85.35
2023-02-05T13:08:00,mfh,85.68
2023-02-05T13:09:00,mfh,85.17
2023-02-05T13:10:00,mfh,85.15
2023-02-05T13:11:00,mfh,85.00
2023-02-05T13:12:00,mfh,85.69
2023-02-05T13:13:00,mfh,85.52
2023-02-05T13:14:00,mfh,85.95
2023-02-05T13:15:00,mfh,78.00
2023-02-05T13:16:00,mfh,79.02
2023-02-05T13:17:00,mfh,78.74
2023-02-05T13:18:00,mfh,78.94